Find STARLINK-38128

NORAD ID: 799501178 Int'l Des: 2026-160A Constellation: starlink operational

Aktuelle Ansicht

3D-Globus wird geladen...

About STARLINK-38128

STARLINK-38128 (NORAD 799501178) is a starlink constellation satellite launched Jul 9, 2026

Über STARLINK-38128

Beschreibung wird geladen...

Nächste Überflüge

Passes for default location (London). Set your location on the main map for personalized predictions.

Höhenverlauf

Loading altitude history...

Zweizeiliger Elementsatz

1 99999C 2026160A 26195.65326389 .00442260 00000-0 572580-4 0 1954
2 99999 70.0040 27.8311 0009769 260.9531 45.6059 16.06542647 18
Epoch: 14. Juli 2026 • Age: 4 hours